Weather History for Toledo, OH

Change the Weather History Date:

Wednesday, September 11, 2013

  Actual Average Record
Temperature  
Mean Temperature 82 °F 66 °F  
Max Temperature 95 °F 78 °F 95 °F (1931)
Min Temperature 69 °F 55 °F 35 °F (1967)
Degree Days  
Heating Degree Days 0 2  
Month to date heating degree days 5 16  
Since 1 July heating degree days 34 30  
Cooling Degree Days 17 3  
Month to date cooling degree days 69 47  
Year to date cooling degree days 751 749  
Growing Degree Days 32 (Base 50)    
Moisture  
Dew Point 68 °F    
Average Humidity 68    
Maximum Humidity 100    
Minimum Humidity 36    
Precipitation  
Precipitation 0.04 in 0.09 in 1.80 in (1986)
Month to date precipitation 0.67 1.04  
Year to date precipitation 27.46 24.36  
Snow  
Snow 0.00 in 0.00 in - ()
Month to date snowfall 0.0 0.0  
Since 1 July snowfall 0.0 0.0  
Since 1 September snowfall 0.0 0.0  
Snow Depth 0.00 in    
Sea Level Pressure  
Sea Level Pressure 30.01 in    
Wind  
Wind Speed 8 mph (SW)    
Max Wind Speed 21 mph    
Max Gust Speed 26 mph    
Visibility 9 miles    
Events Rain , Thunderstorm    
T = Trace of Precipitation, MM = Missing Value Source: NWS Daily Summary

Daily Weather History Graph

Daily Weather History Graph

Search for Another Location

Airport:

Trip Planner

Search our weather history database for the weather conditions in past years. The results will help you decide how hot, cold, wet, or windy it might be!

Date:

Astronomy

Sep. 11, 2013 Rise Set
Actual Time 7:11 AM EDT 7:51 PM EDT
Civil Twilight 6:43 AM EDT 8:18 PM EDT
Nautical Twilight 6:10 AM EDT 8:51 PM EDT
Astronomical Twilight 5:36 AM EDT 9:26 PM EDT
Moon 1:43 PM EDT (9/11) 11:41 PM EDT (9/11)
Length of Visible Light 13h 35m
Length of Day
12h 39m
Waxing Crescent, 38% of the Moon is Illuminated
Sep 11
Waxing Crescent
Sep 12
First Quarter
Sep 19
Full
Sep 26
Last Quarter
Oct 4
New

Hourly Weather History & Observations

Time (EDT) Temp. Heat Index Dew Point Humidity Pressure Visibility Wind Dir Wind Speed Gust Speed Precip Events Conditions
12:52 AM 79.0 °F - 66.0 °F 64% 30.04 in 10.0 mi SW 10.4 mph - N/A   Clear
1:52 AM 77.0 °F - 66.9 °F 71% 30.04 in 10.0 mi SW 6.9 mph - N/A   Clear
2:52 AM 77.0 °F - 68.0 °F 74% 30.03 in 10.0 mi WSW 8.1 mph - N/A   Clear
3:52 AM 75.9 °F - 68.0 °F 76% 30.03 in 10.0 mi WSW 8.1 mph - N/A   Clear
4:52 AM 73.9 °F - 68.0 °F 82% 30.04 in 8.0 mi SSW 6.9 mph - N/A   Clear
5:52 AM 73.9 °F - 68.0 °F 82% 30.04 in 9.0 mi SSW 6.9 mph - N/A   Clear
6:52 AM 73.0 °F - 68.0 °F 84% 30.05 in 8.0 mi SSW 6.9 mph - N/A   Clear
7:52 AM 73.0 °F - 68.0 °F 84% 30.06 in 7.0 mi SW 9.2 mph - N/A   Clear
8:52 AM 75.0 °F - 68.0 °F 79% 30.06 in 7.0 mi SW 9.2 mph - N/A   Clear
9:52 AM 77.0 °F - 69.1 °F 76% 30.07 in 8.0 mi SW 9.2 mph - N/A   Clear
10:52 AM 81.0 °F 84.4 °F 70.0 °F 69% 30.06 in 9.0 mi WSW 8.1 mph - N/A   Clear
11:52 AM 86.0 °F 90.7 °F 70.0 °F 59% 30.04 in 10.0 mi SW 8.1 mph - N/A   Clear
12:52 PM 89.1 °F 94.1 °F 70.0 °F 53% 30.02 in 10.0 mi SW 9.2 mph - N/A   Clear
1:52 PM 93.0 °F 95.9 °F 66.0 °F 41% 30.00 in 10.0 mi SW 12.7 mph - N/A   Clear
2:52 PM 93.9 °F 95.6 °F 64.0 °F 37% 29.98 in 10.0 mi SW 10.4 mph 18.4 mph N/A   Mostly Cloudy
3:52 PM 93.0 °F 94.2 °F 63.0 °F 37% 29.96 in 10.0 mi SW 10.4 mph - N/A   Clear
4:52 PM 89.1 °F 91.3 °F 66.0 °F 46% 29.95 in 10.0 mi WSW 15.0 mph 24.2 mph N/A   Scattered Clouds
5:52 PM 88.0 °F 90.3 °F 66.0 °F 48% 29.93 in 10.0 mi SSW 5.8 mph - N/A   Scattered Clouds
6:52 PM 87.1 °F 91.3 °F 69.1 °F 55% 29.93 in 10.0 mi SW 5.8 mph - N/A   Scattered Clouds
7:27 PM 78.8 °F - 66.2 °F 65% 29.98 in 10.0 mi NW 13.8 mph 20.7 mph N/A   Mostly Cloudy
7:52 PM 73.9 °F - 68.0 °F 82% 29.97 in 10.0 mi NW 6.9 mph - 0.02 in   Mostly Cloudy
8:21 PM 71.6 °F - 69.8 °F 94% 30.00 in 7.0 mi WNW 12.7 mph 20.7 mph 0.01 in Rain , Thunderstorm Light Rain
8:36 PM 73.4 °F - 68.0 °F 83% 29.99 in 10.0 mi WNW 6.9 mph - 0.01 in   Scattered Clouds
8:52 PM 73.0 °F - 68.0 °F 84% 29.99 in 10.0 mi West 5.8 mph - 0.01 in Rain Light Rain
9:52 PM 70.0 °F - 69.1 °F 97% 29.97 in 10.0 mi Calm Calm - 0.01 in   Scattered Clouds
10:52 PM 70.0 °F - 69.1 °F 97% 29.98 in 9.0 mi Calm Calm - N/A   Clear
11:52 PM 69.1 °F - 68.0 °F 96% 29.97 in 9.0 mi SSE 4.6 mph - N/A   Clear